Voltar ao catálogo

KUIPER-00137

AtivoComunicaçõesLEO
NORAD 65963·PAYLOAD·🇺🇸 United States

Lançado Oct 14, 2025 de Cape Canaveral Space Force Station

Loading…

Próximas Passagens (próximas 24 horas)

TLE

AtualizadoSource: CelesTrak SupGP

Época: Sep 14, 2026, 22:27 UTC

1 65963C 25228S   26257.93550926  .00000718  00000+0  94057-4 0  2570
2 65963  51.9020 228.8192 0000859  43.9596 344.7399 14.79924614    15

Acompanhe KUIPER-00137 em tempo real com AllMySat

Download on the App Store